EW1343 Weather Reports


Display with metric or nautical units.
time (UTC)temp
F
wind
direction
speed
MPH
gust
MPH
rain 1hr
in
rain 24hr
in
rain mn
in
humidity
%
barometer
mb
20260506170008 0 171 1.0 7.0 0.00 0.00 0.00 1014.9
20260506164505 0 226 2.0 8.0 0.00 0.00 0.00 1014.9
20260506163121 0 212 2.0 11.0 0.00 0.00 0.00 1014.9
20260506161602 0 229 0.0 9.0 0.00 0.00 0.00 1014.8
20260506160051 0 227 1.0 8.0 0.00 0.00 0.00 1014.8
20260506154606 0 220 3.0 9.0 0.00 0.00 0.00 1014.8
20260506153050 0 202 3.0 11.0 0.00 0.00 0.00 1014.8
20260506151538 0 244 5.0 12.0 0.00 0.00 0.00 1014.8
20260506150034 0 228 1.0 10.0 0.00 0.00 0.00 1014.9
20260506144529 0 254 3.0 9.0 0.00 0.00 0.00 1015.0
20260506143030 0 292 4.0 12.0 0.00 0.00 0.00 1015.0
20260506141520 0 228 4.0 8.0 0.00 0.00 0.00 1015.0
20260506140016 0 290 3.0 10.0 0.00 0.00 0.00 1015.0
20260506134511 0 238 1.0 9.0 0.00 0.00 0.00 1015.1
20260506133008 0 236 4.0 10.0 0.00 0.00 0.00 1015.1
20260506131502 0 243 0.0 11.0 0.00 0.00 0.00 1015.2
20260506130100 0 249 1.0 11.0 0.00 0.00 0.00 1015.2
20260506124554 0 267 1.0 10.0 0.00 0.00 0.00 1015.2
20260506123050 0 262 0.0 11.0 0.00 0.00 0.00 1015.3
20260506120029 0 259 4.0 10.0 0.00 0.00 0.00 1015.4
20260506114531 0 218 2.0 10.0 0.00 0.00 0.00 1015.4
20260506113019 0 209 2.0 9.0 0.00 0.00 0.00 1015.3
20260506111515 0 257 4.0 11.0 0.00 0.00 0.00 1015.4
20260506110010 0 241 6.0 13.0 0.00 0.00 0.00 1015.4
20260506104506 0 235 3.0 10.0 0.00 0.00 0.00 1015.3
20260506103002 0 296 1.0 6.0 0.00 0.00 0.00 1015.2
20260506101605 0 225 2.0 10.0 0.00 0.00 0.00 1015.2
20260506100053 0 267 1.0 8.0 0.00 0.00 0.00 1015.3
20260506094607 0 224 1.0 9.0 0.00 0.00 0.00 1015.4
20260506093052 0 246 3.0 11.0 0.00 0.00 0.00 1015.4
20260506091541 0 257 0.0 5.0 0.00 0.00 0.00 1015.3
20260506090035 0 147 0.0 6.0 0.00 0.00 0.00 1015.3
20260506084531 0 221 0.0 5.0 0.00 0.00 0.00 1015.3
20260506083027 0 248 3.0 9.0 0.00 0.00 0.00 1015.3
20260506081523 0 258 2.0 13.0 0.00 0.00 0.00 1015.2
20260506073011 0 360 3.0 8.0 0.00 0.00 0.00 1015.2
20260506071506 0 17 2.0 9.0 0.00 0.00 0.00 1015.2
20260506061549 0 46 0.0 4.0 0.00 0.00 0.00 1015.1
20260506044530 0 306 0.0 0.0 0.00 0.00 0.00 1014.8
20260506043018 0 306 0.0 0.0 0.00 0.00 0.00 1014.9
20260506041517 0 306 0.0 0.0 0.00 0.00 0.00 1014.9
20260506040032 0 306 0.0 0.0 0.00 0.00 0.00 1014.8
20260506034504 0 306 0.0 0.0 0.00 0.00 0.00 1014.7
20260506033100 0 306 0.0 0.0 0.00 0.00 0.00 1014.8
20260506031604 0 306 0.0 0.0 0.00 0.00 0.00 1014.7
20260506030052 0 244 0.0 0.0 0.00 0.00 0.00 1014.7
20260506024547 0 244 0.0 0.0 0.00 0.00 0.00 1014.7
20260506023044 0 244 0.0 0.0 0.00 0.00 0.00 1014.8
20260506021539 0 244 0.0 0.0 0.00 0.00 0.00 1014.8
20260506020034 0 244 0.0 0.0 0.00 0.00 0.00 1014.9
20260506014532 0 244 0.0 0.0 0.00 0.00 0.00 1014.9
20260506013026 0 244 0.0 0.0 0.00 0.00 0.00 1014.8
20260506011523 0 244 0.0 0.0 0.00 0.00 0.00 1014.7
20260506010016 0 244 0.0 0.0 0.00 0.00 0.00 1014.9
20260506004522 0 244 0.0 0.0 0.00 0.00 0.00 1014.8
20260506003010 0 244 0.0 0.0 0.00 0.00 0.00 1015.0
20260506001503 0 244 0.0 0.0 0.00 0.00 0.00 1014.9
20260505234601 0 244 0.0 0.0 0.00 0.00 0.00 1014.9
20260505233102 0 244 0.0 0.0 0.00 0.00 0.00 1014.9
20260505231552 0 244 0.0 0.0 0.00 0.00 0.00 1014.9
20260505230041 0 244 0.0 0.0 0.00 0.00 0.00 1014.8
20260505224537 0 244 0.0 0.0 0.00 0.00 0.00 1015.0
20260505223036 0 244 0.0 0.0 0.00 0.00 0.00 1015.0
20260505221528 0 244 0.0 0.0 0.00 0.00 0.00 1014.9
20260505220023 0 244 0.0 0.0 0.00 0.00 0.00 1014.9
20260505214522 0 243 0.0 0.0 0.00 0.00 0.00 1014.8
20260505213014 0 226 0.0 0.0 0.00 0.00 0.00 1014.9
20260505211511 0 226 0.0 0.0 0.00 0.00 0.00 1015.0
20260505210006 0 226 0.0 0.0 0.00 0.00 0.00 1015.0
20260505204502 0 226 0.0 0.0 0.00 0.00 0.00 1014.9
20260505203059 0 226 0.0 0.0 0.00 0.00 0.00 1014.9
20260505201558 0 232 1.0 5.0 0.00 0.00 0.00 1014.8
20260505200050 0 233 1.0 6.0 0.00 0.00 0.00 1014.8
20260505194551 0 244 0.0 4.0 0.00 0.00 0.00 1014.7
20260505193040 0 259 1.0 6.0 0.00 0.00 0.00 1014.7
20260505191537 0 238 1.0 8.0 0.00 0.00 0.00 1014.6
20260505190037 0 235 3.0 8.0 0.00 0.00 0.00 1014.5
20260505184526 0 246 2.0 9.0 0.00 0.00 0.00 1014.4
20260505183022 0 225 3.0 9.0 0.00 0.00 0.00 1014.2
20260505181518 0 238 2.0 11.0 0.00 0.00 0.00 1014.1
20260505180015 0 277 2.0 10.0 0.00 0.00 0.00 1014.2
20260505174509 0 222 0.0 10.0 0.00 0.00 0.00 1014.2
20260505173004 0 240 4.0 11.0 0.00 0.00 0.00 1014.2
20260505171606 0 225 4.0 12.0 0.00 0.00 0.00 1014.1